Location: Newark
(9.4667°S, 159.8167°E)
Time: 08:05:34
(UTC+00:00)

Courier 1B Rocket - Pass Details

Date: 25 November 2019
Orbit: 920 x 1202 km, 28.2° (Epoch: 10 December)

Event Time Altitude Azimuth Distance (km) Brightness Sun altitude
Rises 14:50:45 0° 246° (WSW) 4,033 - -50.6°
Reaches altitude 10° 14:54:48 10° 227° (SW) 3,026 - -49.9°
Maximum altitude 14:59:28 17° 188° (S) 2,459 - -49.2°
Exits shadow 15:01:41 15° 166° (SSE) 2,558 7.5 -48.8°
Drops below altitude 10° 15:03:57 10° 148° (SSE) 2,897 8.0 -48.4°
Sets 15:07:43 0° 129° (SE) 3,792 8.8 -47.8°
